#timestamp,LO_Frequency,Hit,StdDev 
1607493615.5,286047005.9,P
1607493635.4,286047004.7,N
1607493655.2,286047006.4,Y
1607493675.0,286047003.6,P
1607493675.9,286047003.6,P
1607493695.8,286047004.2,P
1607493715.6,286047004.2,Y
1607493735.4,286047000.4,P
1607493755.3,286047002.7,N
1607493775.1,286047002.2,N
1607493776.0,286047002.2,N
1607493795.8,286046999.7,N
1607493815.7,286047000.2,N
1607493835.5,286046999.7,N
1607493855.3,286046999.8,N
1607493875.2,286047000.1,N
1607493895.9,286047001.3,N
1607493915.7,286047001.9,N
1607493935.6,286047001.5,N
1607493955.4,286047004.4,Y
1607493975.2,286047002.5,P
1607493995.1,286047003.6,P
1607493996.0,286047003.6,P
1607494015.8,286047001.8,N
1607494035.6,286047006.0,Y
1607494055.5,286047003.5,P
1607494075.3,286047004.7,P
1607494095.1,286047005.2,P
1607494115.9,286047005.0,Y
1607494135.7,286047000.0,P
1607494155.5,286047002.1,N
1607494175.4,286047004.2,N
1607494195.2,286047003.5,N
1607494215.0,286047005.4,Y
1607494215.9,286047005.4,P
1607494235.8,286047002.2,N
1607494255.6,286047001.8,N
1607494275.4,286047001.5,N
1607494295.3,286047001.3,N
1607494315.1,286047004.3,Y
1607494335.8,286047000.4,P
1607494355.7,286047000.2,N
1607494375.5,286047001.3,N
1607494395.3,286047001.3,N
1607494415.2,286047003.7,Y
1607494435.9,286047002.8,P
1607494455.7,286047002.2,N
1607494475.6,286047004.4,P
1607494495.4,286047003.8,Y
1607494515.2,286047002.3,P
1607494535.1,286046999.7,N
1607494536.0,286046999.7,N
1607494555.8,286047000.1,N
1607494575.6,286047002.6,N
1607494595.5,286047001.4,N
1607494615.3,286047002.0,N
1607494635.1,286047003.0,N
1607494655.9,286047003.5,N
1607494675.7,286047005.9,Y
1607494695.5,286047004.4,P
1607494715.4,286047003.2,N
1607494735.2,286047004.1,P
1607494755.0,286047004.1,Y
1607494755.9,286047004.1,P
1607494775.8,286046998.8,P
1607494795.6,286046998.5,N
1607494815.4,286047001.1,N
1607494835.3,286047000.4,N
1607494855.1,286047000.2,N
1607494875.8,286047000.1,N
1607494895.7,286047001.6,N
1607494915.5,286047003.1,N
1607494935.3,286047003.6,N
1607494955.2,286047003.5,N
1607494975.9,286047005.8,Y
1607494995.7,286047004.2,P
1607495015.6,286047003.9,N
1607495035.4,286047002.7,N
1607495055.2,286047004.0,Y
1607495075.1,286047001.1,P
1607495076.0,286047001.1,N
1607495095.8,286046998.2,N
1607495115.6,286046999.1,N
1607495135.5,286046998.5,N
1607495155.3,286046998.3,N
1607495175.1,286046998.5,N
1607495195.9,286047000.5,N
1607495215.7,286046999.8,N
1607495235.5,286047000.5,N
1607495255.4,286047000.3,N
1607495275.2,286047000.9,N
1607495295.0,286046998.3,N
1607495295.9,286046998.3,N
1607495315.8,286046998.7,N
1607495335.6,286046999.2,N
1607495355.4,286046999.0,N
1607495375.3,286046998.4,N
1607495395.1,286046998.7,N
1607495415.8,286046999.5,N
1607495435.7,286046998.4,N
1607495455.5,286046996.7,N
1607495475.3,286046996.9,N
1607495495.2,286046999.6,N
1607495515.0,286046999.3,N
1607495515.9,286046999.3,N
1607495535.7,286047001.2,N
1607495555.6,286046996.5,N
1607495575.4,286046999.4,N
1607495595.2,286046996.6,N
1607495615.1,286046997.0,N
1607495616.0,286046997.0,N
1607495635.8,286046996.9,N
1607495655.6,286046997.2,N
1607495675.5,286046998.9,N
1607495695.3,286046998.6,N
1607495715.1,286046998.8,N
1607495735.9,286046998.8,N
1607495755.7,286046999.5,N
1607495775.5,286046997.0,N
1607495795.4,286046996.5,N
1607495815.2,286046999.6,N
1607495835.0,286046996.5,N
1607495835.9,286046996.5,N
1607495855.8,286046996.5,N
1607495875.6,286046996.6,N
1607495895.4,286046996.8,N
1607495915.3,286046997.3,N
1607495935.1,286046997.1,N
1607495955.8,286046997.9,N
1607495975.7,286046997.7,N
1607495995.5,286046997.3,N
1607496015.3,286046997.3,N
1607496035.2,286046998.0,N
1607496055.0,286046997.9,N
1607496055.9,286046997.9,N
1607496075.7,286046997.3,N
1607496095.6,286046995.0,Y
1607496145.4,286046997.7,E
1607496155.4,286046999.2,N
1607496175.2,286046998.6,P
1607496195.0,286046998.3,P
1607496195.9,286046998.3,Y
1607496215.8,286047000.2,P
1607496235.6,286047002.3,P
1607496255.4,286046999.9,N
1607496275.3,286047000.1,N
1607496295.1,286047000.1,N
1607496296.0,286047000.1,N
1607496315.8,286046999.9,N
1607496335.7,286047000.2,N
1607496355.5,286047002.8,Y
1607496375.3,286047001.2,P
1607496395.2,286047001.2,N
1607496415.9,286046998.1,P
1607496435.7,286046999.3,N
1607496455.6,286046998.8,N
1607496475.4,286046999.4,N
1607496495.2,286046996.5,Y
1607496515.1,286046996.5,P
1607496516.0,286046996.5,N
1607496535.8,286046999.2,N
1607496555.6,286046998.2,N
1607496575.5,286046998.7,N
1607496595.3,286046999.4,N
1607496615.1,286046999.4,N
1607496635.9,286046997.2,N
1607496655.7,286046999.6,N
1607496675.5,286046996.9,N
1607496695.4,286046997.5,N
1607496715.2,286046995.2,Y
1607496735.0,286046997.2,P
1607496735.9,286046997.2,P
1607496755.8,286046996.7,P
1607496775.6,286046998.0,Y
1607496795.4,286047000.8,P
1607496815.3,286047000.7,N
1607496835.1,286046998.4,N
1607496836.0,286046998.4,N
1607496855.8,286046999.3,N
1607496875.7,286047000.8,N
1607496895.5,286046998.1,N
1607496915.3,286046998.2,N
1607496935.2,286046999.0,N
1607496955.9,286046999.6,N
1607496975.7,286046996.9,N
1607496995.6,286046999.6,N
1607497015.4,286046999.5,N
1607497035.2,286046999.6,N
1607497055.1,286046999.6,N
1607497056.0,286046999.6,N
1607497075.8,286046996.7,Y
1607497095.6,286046999.6,P
1607497115.5,286046996.6,P
1607497135.3,286046996.5,N
1607497155.1,286046999.6,N
1607497175.9,286046996.7,N
1607497195.7,286046996.9,N
